STARLINK-1292 (45394 NORAD) Tracking and Keplerian Element Data

This shows tracking and keplerian element data for the satellite.

Feedback or suggestion? Click here.




ElementValue
Catalog45394
NameSTARLINK-1292
Epoch Orbit1149
Epoch Day149.41668981
Epoch Year2020
RAAN267.4579
Inclination52.9992
Eccentricity0.0003302
Argument of Perigee348.4598
Mean Anonmoly280.6272
Mean Motion15.48523875
Decay Rate0.04623633
L11 45394U 20019AL 20149.41668981 .04623633 00000-0 74395-1 0 9992
L22 45394 52.9992 267.4579 0003302 348.4598 280.6272 15.48523875 11492

Live tracking and technical data element details for STARLINK-1292 (NORAD 45394). STARLINK-1292 can be tracked NOW for your location showing map with azimuth and elevation plus other details from your city location.

Track the satellite on the map from your city or location and see movement details for azimuth, elevation, latitude, longitude, range, height, and movement on the map or in text.







IsCatalogInMostPopularTable: catalog: 45394, numindb: 14
Update: records affected: 1



GetName: 45394 STARLINK-1292

Hit Count: updated at: Sat, 30 May 2020 14:06:25 GMT